Airfield :
LOGIN :

Register | Disclaimer

   EN    FR    IT 

 










Legend :    VFR   Marginal VFR   IFR   Intensive IFR   Very Intensive IFR
Visi :
Ceiling :
>= 8 km
>= 3000ft
5 to 8 km
1000 to 3000 ft
1500m to 5 km
500 to 1000 ft
800 to 1500m
200 to 500 ft
< 800m
< 200 ft
Symbols :   Thunderstorms  Fog  Heavy snow  Heavy precipitations  Wind > 20 kt
SIGMETs :     Misc.  Thunderstorms  Icing  Turbulence  Mountain Waves  Volcanic Ashes






- Airport Elevation : 3006 ft
- IATA code : LEN


LELN - Leon

CURRENT METAR :
  • 191100Z 19004KT 130V270 CAVOK 16/05 Q1024

EXPIRED METARs :
  • 191030Z VRB02KT CAVOK 15/04 Q1024
  • 191000Z 14004KT 070V180 CAVOK 14/04 Q1024
  • 190930Z 15004KT 090V230 CAVOK 13/05 Q1024
  • 190900Z VRB02KT CAVOK 13/05 Q1024
  • 190830Z VRB01KT CAVOK 12/05 Q1023

TAF TAF LELN
Valid from the 19 at 09:00 until the 20 at 09:00 UTC


190800Z 1909/2009 VRB05KT 9999 FEW045 TX21/1915Z TN07/2006Z
BECMG 1913/1914 35008KT
PROB30
TEMPO 2002/2006 BKN012



MET'MAP, your aeronautical weather chart ! - Copyright ORBIFLY December 2007 - Disclaimer

ORBIFLY MET'MAP TEAM :

Programming & Development : Alexandra Zaïnal
Concept & original design : Baudouin d'Aumeries
Assistance for programming : Marc-Olivier Méhu
Technical & hardware support : Manuel Goepfert

Contact : metmap@orbifly.com




SOURCES & CREDITS :

   NOAA